Regional Weather Roundup
Issued by NWS

Home | Current Version | Previous Version | Graphics & Text | Print | Product List | Glossary On
Versions: 1 2 3 4 5 6 7 8 9 10 11 12 13 14 15 16 17 18 19 20 21 22 23 24 25 26 27 28 29 30 31 32 33 34 35 36 37 38 39 40 41 42 43 44 45 46 47 48 49 50
000
ASUS43 KLOT 201508
RWRIL

ILLINOIS REGIONAL WEATHER ROUNDUP
NATIONAL WEATHER SERVICE CHICAGO/ROMEOVILLE IL
900 AM CST SAT JAN 20 2018

NOTE: "FAIR" INDICATES FEW OR NO CLOUDS BELOW 12,000 FEET WITH NO
SIGNIFICANT WEATHER AND/OR OBSTRUCTIONS TO VISIBILITY.

* THESE STATIONS ARE NOT UNDER NWS QUALITY CONTROL. THEY ALSO MAY NOT
  REPORT WEATHER SUCH AS PRECIPITATION OR FOG.

ILZ001-002-007-009-015-016-024-201600-
NORTHWEST ILLINOIS

CITY           SKY/WX    TMP DP  RH WIND       PRES   REMARKS
MOLINE         FAIR      34  30  85 CALM      29.91R
STERLING*      FAIR      39  33  79 SW3       29.92R
SAVANNA*       FAIR      34  30  85 S3        29.90S
$$

ILZ003-004-008-010-011-017-018-201600-
NORTH CENTRAL ILLINOIS

CITY           SKY/WX    TMP DP  RH WIND       PRES   REMARKS
ROCKFORD       PTSUNNY   32  28  85 S6        29.92R WCI  26
FREEPORT*      FAIR      34  29  80 SW9       29.91R WCI  27
ROCHELLE*      FAIR      33  30  91 SW6       29.92R WCI  27
DE KALB*       FAIR      36  29  77 SW7       29.91R WCI  30
PERU*          FAIR      36  28  74 SW7       29.94R WCI  30
$$

ILZ005-006-012>014-019>023-201600-
NORTHEAST ILLINOIS

CITY           SKY/WX    TMP DP  RH WIND       PRES   REMARKS
CHICAGO-OHARE  PTSUNNY   36  28  73 SW8       29.91R WCI  30
CHICAGO-MIDWAY PTSUNNY   36  29  75 S9        29.93R WCI  29
AURORA         FAIR      32  28  85 S7        29.92R WCI  26
LANSING*       FAIR      33  30  88 SW9       29.96R WCI  25
JOLIET*        FAIR      36  30  77 SW5       29.95R WCI  32
WAUKEGAN       FAIR      38  29  70 SW9       29.89R WCI  31
DUPAGE AIRPORT FAIR      33  28  81 SW8       29.91R WCI  26
KANKAKEE*      FAIR     N/A N/A N/A SW13      29.97R
WHEELING       FAIR      36  29  75 SW8       29.92R WCI  30
MORRIS*        FAIR      34  29  82 SW6       29.94R WCI  29
ROMEOVILLE*    FAIR      34  29  81 SW8       29.94R WCI  28
NORTHERLY ISL    N/A     36  27  70 W12         N/A  WCI  28
$$

LMZ740>746-201600-
SOUTHERN LAKE MICHIGAN

STATION/POSITION SKY/WX   TEMP    WIND        PRES    VSBY  WAVE
                          AIR SEA DIR/SP/G                  HT/PER
                          (F)     (DEG/KT/KT) (MB)    (MI)  (FT/S)
HARRISON CRIB              36     200/ 12/ 14   N/A
BURNHAM HARBOR             36     240/  7/ 10   N/A
CALUMET HARBOR             35     200/  9/ 13 1013.1R
BURNS HARBOR               35     210/ 10/ 17 1014.2R
MICHIGAN CITY              36     190/ 13/ 16   N/A
$$

ILZ025>027-034>036-040-047-049-050-058-095>099-201600-
WEST-CENTRAL ILLINOIS

CITY           SKY/WX    TMP DP  RH WIND       PRES   REMARKS
QUINCY         CLOUDY    41  36  82 SW10      29.95R
GALESBURG*     FAIR      38  33  84 SW9       29.94R WCI  31
MACOMB*        CLOUDY    39  34  82 SW13      29.96R WCI  31
JACKSONVILLE*  CLOUDY    37  31  79 S8        29.98R WCI  31
PITTSFIELD*    CLOUDY    40  34  80 S7        29.99R
$$

ILZ028>032-037-038-041>044-048-051>054-059>061-201600-
CENTRAL ILLINOIS

CITY           SKY/WX    TMP DP  RH WIND       PRES   REMARKS
PONTIAC        FAIR      36  33  88 SW13      29.96R WCI  27
BLOOMINGTON    FAIR      35  31  85 SW14      29.98R WCI  26
DECATUR        FAIR      36  30  79 SW16      30.01R WCI  26
PEORIA         FAIR      36  30  79 S8        29.96R WCI  30
LACON*         FAIR      37  29  74 SW10      29.94R WCI  29
LINCOLN*       FAIR      36  32  84 S6        29.99R WCI  31
SPRINGFIELD    FAIR      39  31  72 S13       29.99R WCI  31
TAYLORVILLE    FAIR      35  29  79 S10       30.01R WCI  27
$$

ILZ033-039-045-046-055>057-062-063-201600-
EAST-CENTRAL ILLINOIS

CITY           SKY/WX    TMP DP  RH WIND       PRES   REMARKS
CHAMPAIGN      FAIR      34  29  82 S14       30.01R WCI  25
DANVILLE*      FAIR      32  27  80 S12       29.99R WCI  23
RANTOUL*       FAIR      37  32  82 SW14      29.99R WCI  28
MATTOON        FAIR      34  27  75 S12       30.02R WCI  25
PARIS*         FAIR      34  29  80 S16       30.05R WCI  24
$$

ILZ079-100>102-201600-
SOUTHWEST ILLINOIS

CITY           SKY/WX    TMP DP  RH WIND       PRES   REMARKS
ALTON          MOSUNNY   39  32  75 S10       30.02R WCI  32
BELLEVILLE     SUNNY     39  28  64 S8        30.03R WCI  34
CAHOKIA*       CLOUDY    38  29  70 S7        30.02R WCI  33
SPARTA*        CLOUDY    38  28  68 S12       30.07R WCI  30
$$

ILZ064>066-069>071-074>076-080>082-084>086-088>090-092>094-201600-
SOUTH-CENTRAL ILLINOIS

CITY           SKY/WX    TMP DP  RH WIND       PRES   REMARKS
CARBONDALE     FAIR      41  26  55 SW18      30.10R
CAIRO*         CLOUDY    38  31  74 S8        30.15S WCI  32
EFFINGHAM*     FAIR      39  29  68 S9        30.07R WCI  33
MARION         MOSUNNY   41  23  48 S12       30.11R
MT. VERNON     FAIR      39  28  64 S13       30.09R WCI  31
CENTRALIA*     SUNNY     39  30  68 S12       30.05S WCI  32
SALEM*         FAIR      40  29  62 S10       30.06R
METROPOLIS*    PTSUNNY   40  30  66 S7        30.16S
$$

ILZ067-068-072-073-078-083-087-091-201600-
SOUTHEAST ILLINOIS

CITY           SKY/WX    TMP DP  RH WIND       PRES   REMARKS
LAWRENCEVILLE  FAIR      30  21  69 S8        30.11R WCI  22
FLORA*         FAIR      38  27  64 S14       30.08R WCI  30
FAIRFIELD*     FAIR      36  26  67 S7        30.09R WCI  31
HARRISBURG*    FAIR      40  26  55 SW10      30.12R
ROBINSON*      FAIR      36  26  66 S9        30.10R WCI  29
CARMI*         FAIR      37  25  63 S9        30.11R WCI  30
$$

ABBREVIATIONS USED IN REMARKS
   TC - TEMPERATURE IN CELSIUS
  WCI - WIND CHILL INDEX
   HX - HEAT INDEX
  VSB - VISIBILITY
$$





USA.gov is the U.S. government's official web portal to all federal, state and local government web resources and services.